Wind_Speed
4 4 5 6 6 7 6 6 6 7 7 7 6 6 5 5 5 5 5 6 7 7 8 10 11 12 13 13 13 12 12 11 11 10 9 8 6 5 4 4 3 4 5 7 8 9 10 11 12
4 3 4 5 7 7 6 6 6 7 8 8 8 8 7 7 7 6 6 6 7 7 8 9 10 11 12 12 12 12 12 12 11 10 10 8 7 6 5 4 3 3 4 5 8 9 10 11 13
4 3 4 5 6 5 5 5 6 7 8 8 9 9 9 8 8 7 6 6 7 7 7 8 9 10 11 12 12 12 12 12 11 10 10 9 8 7 5 4 3 2 3 4 6 8 10 12 13
4 3 3 4 4 4 5 5 5 6 7 9 10 10 10 9 9 8 7 6 6 6 6 7 8 9 10 10 11 11 11 11 11 11 10 9 9 7 6 4 3 2 2 3 5 7 9 11 13
4 4 4 3 3 3 4 4 5 5 7 9 10 10 10 10 9 8 7 6 6 6 6 6 6 7 8 8 9 9 10 10 10 10 10 9 8 8 7 5 4 2 2 2 3 4 7 9 11
4 3 4 3 2 2 3 3 4 5 6 7 9 9 9 9 9 8 8 7 6 5 5 4 4 5 5 6 7 7 8 8 9 9 9 8 8 7 7 5 4 3 2 1 1 2 4 7 9
5 4 4 4 3 2 1 2 3 4 5 6 7 8 8 8 8 8 7 7 5 4 3 3 2 2 3 4 4 5 6 6 6 7 7 7 7 6 6 6 4 3 2 1 1 1 2 4 7
5 5 5 5 5 4 2 1 1 2 3 5 5 6 6 6 6 7 6 6 4 3 2 1 1 1 2 3 3 4 4 5 5 5 5 6 5 5 5 5 4 3 2 1 1 1 2 3 5
7 7 7 7 7 6 5 3 2 1 2 3 3 4 4 5 5 5 4 4 3 2 2 2 2 3 3 4 4 4 5 5 5 4 4 4 4 4 4 3 3 2 1 1 1 0 1 3 5
10 9 9 8 8 7 7 6 5 4 4 4 5 4 4 4 4 4 4 4 4 4 4 4 5 5 5 6 6 6 6 6 6 5 4 4 3 3 2 2 2 2 1 1 0 1 2 3 5
12 11 11 10 10 9 9 9 9 8 8 8 8 8 8 7 6 5 5 5 5 5 6 6 7 7 7 8 8 8 8 7 7 7 6 5 4 4 3 3 2 1 1 1 1 1 2 4 5
14 13 13 13 13 12 13 13 13 13 12 11 11 11 12 11 10 9 9 9 8 8 8 8 9 9 9 10 10 10 9 9 9 9 9 8 7 6 6 5 4 3 3 3 2 2 3 4 6
15 15 16 16 16 16 16 17 17 16 15 15 14 15 15 15 14 14 13 13 12 12 12 12 12 12 12 12 12 12 12 11 11 11 11 10 10 9 8 8 7 6 5 5 4 4 4 5 6
17 18 19 19 20 20 20 21 22 20 19 19 19 18 18 18 18 18 18 17 16 16 15 15 15 15 15 15 15 14 14 14 14 14 13 13 12 12 11 10 10 9 8 7 7 6 6 6 7
19 20 22 23 24 24 25 26 26 25 24 24 23 23 22 22 22 21 21 21 20 20 19 19 18 18 18 18 17 17 16 17 16 16 16 16 15 15 14 13 12 12 11 10 9 9 8 8 8
22 24 25 26 27 28 29 31 30 29 29 28 28 27 26 26 26 25 25 25 24 23 22 22 21 21 20 20 19 19 19 18 18 18 18 18 18 17 16 16 15 14 14 13 12 10 10 9 9
26 27 29 30 32 32 33 35 34 34 33 32 31 30 30 29 28 28 28 28 27 27 26 24 24 24 23 22 21 22 21 20 20 19 20 20 20 19 18 18 17 16 17 16 15 13 12 11 11
29 30 32 34 36 36 37 38 39 38 37 36 35 34 33 32 31 31 31 30 30 30 29 27 27 26 26 25 25 24 23 23 23 22 21 21 21 21 20 20 20 20 19 18 17 16 14 14 13
32 34 35 37 38 39 40 41 41 41 41 40 39 38 36 35 34 34 33 33 33 32 31 30 29 29 28 28 27 27 26 26 26 25 24 23 22 21 21 21 21 21 20 19 18 18 17 16 15
33 35 37 39 40 40 41 42 43 42 42 42 41 40 39 37 37 36 35 34 34 34 34 34 33 33 32 32 31 30 30 29 30 30 27 25 24 24 23 23 22 22 21 20 20 19 19 19 18
33 36 38 39 41 41 42 43 43 43 43 43 42 41 40 38 37 37 36 36 36 35 36 37 36 37 36 35 35 34 34 35 35 32 29 28 25 24 24 24 23 23 22 21 20 19 20 20 20
34 36 38 40 41 42 42 41 43 41 40 40 39 39 38 37 36 36 36 36 36 36 36 38 39 39 39 38 38 39 39 39 39 36 32 30 28 26 25 24 24 24 23 22 21 21 22 22 21
32 34 35 37 39 40 41 41 39 40 38 37 36 35 35 34 32 32 33 34 35 36 37 38 39 40 41 40 40 41 41 42 41 39 34 32 32 29 26 25 25 24 24 23 22 22 22 22 22
29 32 34 34 34 35 33 33 34 35 33 32 32 32 32 31 31 31 32 32 34 35 36 37 39 41 41 41 42 42 43 43 42 41 39 34 32 29 27 25 25 24 24 24 23 22 22 22 22
31 32 32 30 28 26 24 24 27 27 27 27 27 28 28 28 28 28 29 31 32 34 35 36 37 40 40 40 42 43 44 44 42 40 36 32 29 27 26 24 23 23 23 23 23 23 22 23 23
30 29 26 23 19 18 18 18 20 20 21 22 24 24 24 25 26 27 27 28 29 31 32 33 34 35 37 39 39 40 41 40 40 38 33 29 27 25 24 22 21 20 21 21 21 22 22 22 23
28 24 20 16 13 11 11 12 14 14 15 17 18 20 22 22 23 24 24 24 25 27 27 28 29 31 32 34 34 34 33 32 33 32 28 25 23 22 21 20 19 19 19 20 21 22 22 23 23
24 21 18 13 9 6 5 6 7 7 8 9 13 15 17 19 20 20 20 20 21 23 24 25 25 26 29 31 30 29 28 28 28 24 21 21 20 19 18 17 18 18 19 21 22 22 23 23 24
23 21 18 13 10 6 3 4 4 5 5 6 8 9 11 12 14 15 15 16 17 18 21 21 22 22 23 25 25 24 23 22 20 19 18 17 15 14 13 14 16 18 19 21 22 23 23 23 23
22 21 18 14 12 9 7 7 5 5 6 6 4 4 4 7 8 9 10 11 12 13 14 15 15 16 17 17 16 15 14 13 12 12 12 11 11 11 13 14 16 18 20 21 22 22 23 23 23
Wind_Direction
114 93 79 68 59 49 44 46 52 59 64 63 60 58 59 62 71 90 104 114 112 102 89 80 75 72 71 70 69 67 66 65 65 63 64 66 71 77 89 110 141 170 191 202 206 209 212 213 213
125 100 82 67 58 48 47 47 55 65 67 66 67 65 66 69 75 88 101 113 118 109 97 86 79 73 71 69 68 65 64 62 63 62 61 63 66 71 81 98 121 154 187 202 210 215 218 219 219
138 113 85 70 60 52 51 52 58 66 69 70 70 69 68 71 77 86 97 111 119 114 103 92 83 76 71 68 66 64 61 60 59 60 61 60 62 65 76 91 112 139 178 202 216 222 224 222 220
146 123 98 77 61 58 51 51 54 66 73 73 72 70 69 70 74 80 90 106 115 115 107 95 85 77 71 66 65 62 60 58 56 56 57 59 60 62 69 79 98 124 159 203 218 225 226 222 220
153 132 111 96 74 63 50 49 56 64 74 74 73 70 67 69 71 76 83 96 109 113 108 99 85 75 69 64 61 58 55 53 52 51 52 56 58 59 61 69 80 100 134 187 216 225 223 218 217
165 149 136 136 128 89 63 50 55 59 66 72 72 68 65 66 70 73 77 87 100 108 107 99 83 71 62 57 55 52 49 47 45 45 47 50 54 57 59 62 70 85 106 141 198 213 216 213 212
182 170 167 170 171 154 100 65 53 53 59 66 67 64 64 64 67 70 73 79 85 92 96 93 77 57 42 36 36 38 36 34 36 37 41 45 48 53 59 61 64 76 91 109 134 180 200 206 206
200 191 185 185 185 188 194 197 29 45 48 55 56 56 57 56 59 62 66 69 69 67 59 37 9 346 344 350 355 3 7 8 11 19 27 34 40 46 51 56 58 69 86 107 118 154 194 201 207
215 208 203 198 198 208 215 226 252 292 351 9 15 24 32 33 36 40 41 40 36 22 351 322 306 297 298 303 310 319 326 332 336 341 354 10 23 31 36 42 46 49 57 62 77 166 216 213 212
224 222 219 216 219 220 219 231 245 262 279 297 309 318 328 340 349 354 358 358 350 338 323 309 298 291 289 289 290 294 299 302 304 307 312 327 342 353 5 7 16 23 19 7 338 274 245 233 226
230 232 229 228 229 232 233 238 248 256 264 275 286 293 296 299 305 311 315 319 320 317 312 307 300 293 288 286 284 283 283 284 284 285 287 288 295 297 300 303 300 301 310 308 287 269 258 247 240
234 237 238 240 240 243 242 245 250 254 261 268 276 282 286 289 291 293 296 297 297 298 299 298 297 294 290 286 283 279 276 274 271 271 272 272 275 275 273 275 274 271 272 271 267 261 257 253 247
239 242 245 248 249 251 252 253 255 259 262 265 270 275 280 283 286 287 287 288 288 289 290 291 293 292 290 287 283 278 273 268 266 266 264 265 267 266 263 261 263 262 264 266 264 260 259 256 252
245 248 251 253 255 256 258 259 259 262 263 265 269 273 276 279 281 283 283 283 283 285 286 288 290 290 289 286 283 279 274 268 265 263 262 261 260 260 259 256 256 257 259 263 265 263 260 258 255
251 253 255 257 259 260 263 264 264 265 265 267 269 271 272 273 274 276 278 279 280 281 283 285 286 287 287 284 282 278 274 269 265 262 260 259 257 256 255 254 253 254 255 257 260 261 260 258 256
255 257 259 260 261 262 264 265 266 266 266 267 268 268 269 270 271 272 273 275 276 277 279 281 283 284 284 282 281 278 274 269 265 261 259 257 256 255 253 252 253 251 251 253 256 259 261 261 259
261 262 263 264 264 265 265 266 267 267 267 267 267 267 267 268 269 270 271 272 273 273 274 277 279 281 279 279 280 278 275 270 265 261 259 257 255 254 252 252 252 252 251 254 257 259 259 261 261
268 268 268 268 268 268 268 268 268 268 268 268 268 267 267 267 267 267 268 269 270 270 269 270 273 275 274 274 276 277 275 272 266 261 260 257 256 253 249 251 253 254 253 256 258 258 259 261 261
273 272 272 272 272 271 271 271 270 270 270 269 268 267 267 266 266 266 265 266 267 266 266 266 267 268 269 270 273 274 273 274 270 264 260 258 255 253 251 251 253 254 254 255 257 256 257 260 261
279 278 277 276 274 273 272 272 271 271 270 269 268 267 266 265 265 265 264 264 264 263 263 263 263 263 265 267 270 271 271 271 271 265 261 257 256 254 251 253 254 255 256 257 255 255 256 259 261
285 284 282 280 278 276 274 273 272 270 270 269 268 268 267 265 264 264 263 262 261 260 260 260 260 260 261 262 265 268 269 268 267 268 262 257 257 255 251 251 251 254 257 255 254 257 259 260 261
292 290 286 283 280 277 275 274 273 271 269 269 268 268 267 265 263 261 260 260 258 258 257 257 257 257 259 259 261 264 266 268 267 265 263 261 259 256 252 250 251 252 253 253 256 259 260 260 262
299 295 291 286 282 278 276 274 272 271 269 267 266 266 265 264 262 259 258 258 258 257 256 254 254 255 256 258 259 261 262 265 267 264 265 262 260 255 251 248 249 249 250 254 258 259 261 262 263
309 304 298 293 287 281 277 272 269 269 267 265 263 262 261 261 260 258 257 256 256 256 256 255 255 254 254 256 257 259 262 265 265 265 263 262 259 255 249 247 248 249 250 253 257 259 261 262 265
316 312 308 302 295 286 277 270 266 267 263 261 258 257 257 256 255 253 253 254 253 254 255 256 255 254 254 256 257 259 261 264 267 267 265 262 257 253 247 245 246 249 251 253 257 259 260 262 265
325 322 317 308 300 288 275 266 265 264 262 259 255 253 252 251 250 250 253 254 254 254 254 254 255 254 254 256 258 260 262 264 267 264 264 260 259 256 247 242 244 248 251 253 255 257 260 262 264
338 338 331 320 311 298 283 266 264 266 264 261 257 252 248 248 249 251 254 255 256 257 257 256 256 255 254 256 257 260 260 263 264 262 261 260 257 250 245 245 246 248 252 254 256 258 261 262 263
355 357 355 348 344 331 306 299 276 274 271 269 258 253 248 248 250 251 252 254 255 258 260 260 259 260 257 258 260 260 262 261 259 258 259 253 249 244 242 242 245 249 254 258 259 260 262 262 263
9 12 14 17 20 19 8 356 339 315 313 298 284 266 254 248 247 250 251 253 255 259 260 262 261 260 255 254 257 259 255 253 254 254 246 239 236 235 239 245 252 256 257 258 259 260 260 261 263
17 21 25 29 34 40 34 19 358 358 358 351 334 292 258 245 243 244 248 253 255 259 258 254 257 252 249 248 247 249 243 241 239 235 231 235 239 244 251 255 259 261 259 258 258 258 260 261 263
Height
5915 5915 5916 5917 5918 5918 5917 5917 5916 5915 5915 5914 5913 5912 5911 5911 5911 5913 5911 5909 5909 5910 5909 5909 5909 5909 5908 5907 5907 5906 5905 5904 5903 5902 5900 5899 5899 5898 5898 5898 5898 5898 5899 5899 5900 5901 5902 5903 5904
5916 5916 5917 5918 5918 5918 5919 5918 5917 5916 5915 5914 5913 5912 5911 5910 5910 5910 5909 5909 5910 5910 5910 5910 5910 5910 5909 5909 5908 5907 5907 5905 5904 5903 5902 5900 5899 5898 5898 5898 5898 5898 5898 5898 5899 5899 5900 5901 5903
5916 5917 5918 5918 5918 5919 5919 5918 5918 5916 5915 5914 5913 5913 5912 5911 5910 5910 5909 5909 5910 5910 5910 5911 5911 5910 5910 5910 5909 5908 5908 5907 5905 5904 5903 5901 5900 5899 5898 5898 5898 5897 5897 5897 5898 5898 5899 5900 5901
5917 5918 5919 5919 5919 5919 5919 5919 5918 5917 5916 5915 5914 5913 5912 5912 5911 5910 5910 5910 5910 5910 5911 5911 5911 5911 5911 5910 5910 5909 5908 5907 5906 5905 5904 5902 5901 5900 5899 5898 5897 5897 5897 5897 5896 5897 5897 5898 5899
5917 5918 5919 5919 5919 5920 5919 5919 5918 5918 5917 5916 5915 5914 5913 5912 5911 5911 5910 5910 5910 5911 5911 5911 5911 5911 5911 5911 5910 5909 5909 5908 5907 5906 5905 5903 5902 5900 5899 5898 5897 5897 5896 5896 5896 5896 5896 5896 5897
5918 5919 5920 5919 5919 5919 5919 5919 5919 5918 5917 5916 5915 5915 5914 5913 5912 5912 5911 5911 5911 5911 5911 5911 5911 5911 5911 5911 5910 5910 5909 5908 5907 5906 5905 5904 5902 5901 5900 5898 5897 5897 5896 5896 5896 5895 5895 5895 5896
5918 5919 5919 5919 5919 5919 5919 5919 5919 5918 5918 5917 5916 5915 5914 5914 5913 5912 5912 5911 5911 5911 5911 5911 5911 5911 5911 5911 5910 5910 5909 5908 5907 5906 5905 5904 5903 5901 5900 5899 5898 5897 5896 5896 5895 5895 5895 5895 5895
5917 5918 5918 5918 5919 5919 5919 5918 5918 5918 5917 5917 5916 5915 5915 5914 5913 5913 5912 5912 5912 5911 5911 5911 5911 5910 5910 5910 5910 5909 5909 5908 5907 5906 5905 5904 5903 5902 5900 5899 5898 5897 5896 5895 5895 5895 5895 5895 5895
5915 5918 5917 5917 5918 5918 5918 5918 5918 5917 5917 5916 5916 5915 5915 5914 5913 5913 5912 5912 5911 5911 5911 5910 5910 5910 5909 5909 5909 5908 5908 5907 5906 5905 5904 5903 5903 5901 5900 5899 5898 5897 5896 5895 5895 5895 5895 5895 5895
5914 5915 5916 5916 5916 5916 5916 5916 5916 5916 5915 5915 5915 5914 5914 5913 5913 5912 5912 5911 5911 5910 5910 5909 5909 5909 5908 5908 5907 5907 5906 5905 5905 5904 5903 5903 5902 5901 5900 5899 5897 5896 5895 5895 5894 5894 5894 5894 5894
5911 5913 5913 5914 5914 5914 5914 5914 5914 5914 5914 5913 5913 5913 5912 5912 5911 5911 5910 5910 5909 5909 5909 5908 5908 5907 5907 5906 5906 5905 5904 5903 5903 5902 5902 5901 5900 5900 5899 5898 5897 5896 5895 5894 5893 5893 5893 5893 5893
5909 5910 5910 5911 5911 5911 5911 5911 5911 5911 5911 5911 5911 5910 5910 5909 5909 5909 5908 5908 5907 5907 5907 5906 5906 5905 5904 5904 5903 5902 5902 5901 5901 5900 5900 5899 5899 5898 5897 5897 5896 5895 5894 5893 5892 5891 5891 5891 5891
5906 5907 5907 5907 5908 5908 5908 5908 5908 5908 5908 5908 5907 5907 5907 5906 5906 5905 5905 5905 5904 5904 5904 5903 5903 5902 5901 5901 5900 5899 5899 5898 5898 5897 5897 5897 5896 5896 5895 5894 5894 5893 5893 5892 5891 5890 5890 5890 5890
5903 5903 5903 5903 5904 5904 5904 5903 5903 5903 5904 5904 5904 5903 5903 5902 5902 5902 5901 5901 5901 5901 5900 5900 5899 5899 5898 5897 5896 5896 5895 5895 5894 5894 5894 5893 5893 5893 5892 5892 5892 5891 5890 5890 5889 5889 5888 5888 5888
5899 5900 5899 5899 5899 5899 5899 5898 5898 5898 5898 5898 5898 5898 5898 5898 5897 5897 5896 5896 5896 5896 5896 5896 5895 5895 5894 5893 5892 5891 5891 5890 5890 5890 5890 5889 5889 5889 5889 5889 5888 5888 5888 5887 5887 5887 5886 5886 5885
5895 5895 5895 5894 5893 5893 5894 5892 5892 5892 5892 5892 5892 5892 5892 5892 5892 5891 5891 5891 5891 5891 5891 5891 5891 5890 5889 5888 5888 5887 5886 5886 5885 5885 5885 5885 5885 5885 5885 5885 5885 5884 5884 5884 5884 5884 5884 5883 5883
5891 5890 5889 5888 5887 5886 5886 5884 5884 5884 5885 5885 5885 5885 5886 5885 5885 5885 5885 5885 5885 5885 5886 5886 5885 5885 5884 5883 5882 5882 5881 5881 5880 5880 5880 5880 5880 5880 5880 5881 5881 5880 5880 5880 5881 5881 5880 5880 5880
5885 5884 5883 5881 5879 5879 5878 5876 5876 5876 5876 5876 5877 5877 5878 5878 5878 5878 5878 5878 5879 5879 5879 5879 5879 5879 5878 5877 5876 5876 5875 5875 5874 5874 5874 5874 5875 5875 5875 5875 5875 5875 5876 5876 5876 5876 5876 5876 5876
5878 5877 5875 5873 5871 5870 5869 5867 5867 5866 5867 5867 5867 5868 5869 5869 5870 5870 5870 5871 5871 5871 5872 5872 5873 5872 5872 5871 5871 5870 5869 5869 5868 5868 5868 5868 5869 5869 5869 5870 5870 5870 5871 5871 5871 5872 5872 5872 5873
5871 5869 5866 5863 5861 5860 5859 5857 5856 5856 5855 5855 5856 5857 5858 5859 5860 5861 5862 5862 5863 5864 5864 5864 5865 5865 5865 5864 5864 5863 5862 5861 5862 5861 5861 5861 5862 5862 5863 5864 5864 5865 5865 5866 5867 5867 5867 5868 5868
5862 5859 5856 5853 5850 5848 5847 5846 5844 5844 5843 5844 5844 5845 5847 5849 5850 5851 5852 5853 5854 5855 5855 5856 5856 5857 5857 5856 5856 5855 5854 5853 5853 5853 5854 5854 5854 5855 5856 5857 5858 5859 5860 5861 5861 5862 5863 5863 5863
5853 5849 5845 5841 5839 5837 5836 5835 5832 5832 5832 5832 5833 5834 5836 5837 5839 5840 5841 5842 5844 5845 5846 5847 5847 5848 5848 5848 5849 5848 5847 5846 5845 5845 5846 5846 5847 5848 5849 5850 5852 5853 5854 5855 5856 5857 5857 5858 5858
5844 5839 5835 5830 5826 5824 5823 5822 5822 5820 5820 5821 5822 5823 5825 5827 5829 5830 5831 5832 5833 5835 5836 5837 5838 5838 5839 5840 5840 5840 5839 5838 5837 5836 5837 5838 5839 5841 5843 5844 5845 5847 5848 5849 5850 5851 5852 5852 5852
5835 5830 5824 5819 5815 5813 5812 5812 5811 5810 5810 5811 5812 5813 5815 5816 5818 5820 5821 5823 5824 5825 5826 5827 5828 5829 5830 5831 5832 5832 5831 5830 5828 5828 5829 5830 5832 5834 5835 5837 5839 5840 5842 5843 5844 5845 5846 5846 5846
5828 5821 5814 5809 5805 5804 5803 5802 5801 5801 5801 5802 5803 5804 5805 5807 5809 5810 5812 5813 5814 5815 5817 5818 5819 5820 5821 5822 5822 5823 5823 5822 5820 5820 5820 5822 5824 5826 5828 5830 5832 5833 5835 5837 5837 5838 5839 5840 5840
5820 5813 5807 5802 5798 5796 5795 5795 5795 5794 5794 5794 5795 5796 5797 5799 5801 5802 5803 5805 5806 5807 5808 5809 5810 5811 5812 5813 5814 5814 5814 5814 5814 5814 5815 5816 5818 5820 5822 5823 5825 5827 5829 5830 5831 5832 5832 5833 5833
5814 5806 5800 5796 5792 5791 5791 5790 5789 5789 5789 5789 5789 5790 5791 5792 5794 5795 5796 5797 5798 5799 5800 5801 5802 5803 5804 5805 5806 5806 5806 5807 5807 5807 5808 5810 5812 5814 5816 5817 5819 5821 5822 5823 5824 5825 5826 5826 5827
5812 5804 5798 5793 5790 5790 5789 5788 5787 5786 5786 5786 5785 5786 5786 5787 5788 5789 5790 5791 5792 5793 5794 5795 5796 5796 5797 5798 5798 5799 5800 5800 5801 5802 5803 5805 5807 5808 5810 5812 5814 5815 5816 5817 5818 5819 5820 5820 5820
5811 5805 5798 5794 5791 5790 5789 5790 5787 5786 5784 5783 5782 5782 5783 5783 5784 5785 5785 5786 5786 5787 5788 5789 5790 5790 5791 5791 5792 5793 5794 5795 5796 5797 5798 5800 5802 5804 5805 5807 5808 5809 5810 5811 5812 5813 5813 5813 5813
5813 5806 5801 5797 5794 5791 5790 5792 5787 5786 5784 5783 5781 5780 5781 5781 5781 5781 5782 5782 5782 5783 5783 5784 5785 5785 5786 5787 5788 5788 5789 5791 5792 5793 5794 5796 5797 5799 5800 5802 5803 5804 5804 5805 5806 5806 5806 5807 5807